Date,TemperatureHighF,TemperatureAvgF,TemperatureLowF,DewpointHighF,DewpointAvgF,DewpointLowF,HumidityHigh,HumidityAvg,HumidityLow,PressureMaxIn,PressureMinIn,WindSpeedMaxMPH,WindSpeedAvgMPH,GustSpeedMaxMPH,PrecipitationSumIn
2013-1-1,79.3,72.8,66.2,65.0,61.4,59.0,84,68,57,30.19,30.04,11,2,0,0.00
2013-1-2,83.4,71.5,60.8,69.0,64.3,59.0,97,80,52,30.08,29.98,5,1,0,0.00
2013-1-3,84.9,73.6,67.1,70.0,67.2,65.0,94,81,57,30.12,30.01,8,1,0,0.00
2013-1-4,85.3,72.2,65.0,72.0,68.0,64.0,97,87,62,30.22,30.09,5,1,0,0.00
2013-1-5,75.1,69.1,65.7,70.0,67.0,65.0,97,93,82,30.24,30.14,7,1,0,0.05
2013-1-6,82.1,73.0,65.1,73.0,69.0,64.0,98,88,71,30.17,30.05,10,2,0,0.05
2013-1-7,73.2,69.8,66.4,71.0,68.2,66.0,97,94,89,30.15,30.06,0,0,0,0.24
2013-1-8,82.2,75.2,69.4,74.0,71.2,68.0,97,88,71,30.18,30.06,0,0,0,0.06
2013-1-9,82.0,76.9,73.4,73.0,71.3,70.0,95,83,73,30.27,30.14,0,0,0,0.00
2013-1-10,79.9,76.1,73.4,70.0,67.6,65.0,83,75,61,30.28,30.17,0,0,0,0.00
2013-1-11,80.2,75.5,72.0,72.0,68.4,67.0,87,79,70,30.24,30.14,0,0,0,0.02
2013-1-12,80.8,74.5,67.0,70.0,67.7,65.0,92,80,64,30.17,30.08,0,0,0,0.05
2013-1-13,81.1,75.0,67.2,69.0,66.5,65.0,93,75,62,30.12,30.06,0,0,0,0.00
2013-1-14,80.5,73.7,66.2,67.0,65.1,62.0,88,75,61,30.16,30.11,0,0,0,0.00
2013-1-15,79.2,73.8,65.8,69.0,67.2,64.0,93,80,68,30.12,30.04,0,0,0,0.01
2013-1-16,81.5,72.5,62.9,70.0,67.0,62.0,96,84,65,30.09,30.00,0,0,0,0.00
2013-1-17,81.8,71.4,60.9,73.0,66.5,54.0,98,85,69,30.08,29.96,10,1,0,0.04
2013-1-18,71.7,63.2,51.6,60.0,53.6,46.0,83,72,62,30.22,30.08,13,3,0,0.00
2013-1-19,70.4,67.9,64.4,68.0,64.2,59.0,97,88,68,30.20,30.08,5,0,0,0.21
2013-1-20,81.1,70.5,63.4,70.0,66.4,63.0,98,87,64,30.13,30.00,6,1,0,0.00
2013-1-21,81.1,71.6,64.8,71.0,67.4,64.0,98,87,67,30.05,29.94,7,1,0,0.01
2013-1-22,75.5,67.7,61.8,64.0,59.2,53.0,96,76,59,30.20,29.99,11,3,0,0.00
2013-1-23,74.2,66.5,58.9,59.0,55.6,53.0,87,69,51,30.29,30.19,8,2,0,0.00
2013-1-24,76.8,64.6,57.0,55.0,53.0,44.0,89,68,42,30.28,30.19,4,1,0,0.00
2013-1-25,77.0,65.5,56.1,60.0,55.7,51.0,87,72,50,30.28,30.16,6,1,0,0.00
2013-1-26,78.7,66.8,56.9,61.0,58.1,53.0,95,76,47,30.24,30.15,6,1,0,0.00
2013-1-27,78.1,69.6,60.5,64.0,60.6,58.0,93,75,52,30.27,30.19,12,2,0,0.00
2013-1-28,79.9,74.5,70.8,68.0,64.6,62.0,82,72,59,30.30,30.21,12,3,0,0.00
2013-1-29,79.1,73.6,67.7,70.0,67.3,65.0,93,81,72,30.21,30.11,9,3,0,0.00
2013-1-30,80.7,74.4,70.9,68.0,66.1,64.0,90,76,63,30.10,29.95,15,4,0,0.00
2013-1-31,71.4,65.7,57.0,70.0,58.7,43.0,96,79,53,30.18,29.93,9,2,0,0.00